Flag for Denmark Weather past 2 weeks in Vejle, Denmark

Now
77 °F

Passing clouds.


Feels Like: 79 °F
Forecast: 59 / 83 °F
Wind: 8 mph from East

Location: Billund Lufthavn

Current Time: Jul 24, 2014 at 10:38:27 AM

Latest Report: Jul 24, 2014 at 10:20 AM


Visibility: N/A

Pressure: 30.15 "Hg

Humidity: 54%

Dew point: 59 °F

Location of VejleLocation

Historic Weather in Vejle — Graph

°F

Vejle temperature yesterday

Maximum temperature yesterday: 81 °F (at 1:50 PM)
Minimum temperature yesterday: 57 °F (at 1:50 AM)
Average temperature yesterday: 70 °F

Past Weeks' High & Low Weather Summary

 TemperatureHumidityPressure
High84 °F (Jul 9, 4:50 PM)100% (Jul 12, 4:50 AM)30.27 "Hg (Jul 12, 4:50 AM)
Low46 °F (Jul 16, 4:50 AM)30% (Jul 23, 3:50 PM)29.50 "Hg (Jul 14, 3:20 AM)
Average67 °F71%30.00 "Hg
* Reported Jul 9 9:50 AM — Jul 24 9:20 AM, Vejle, Weather by CustomWeather, © 2014

Note: Actual official high and low records may vary slightly from our data, if they occured in-between our weather recording intervals... More about our weather records

Advertising

Vejle weather history for previous 24 hours

 ConditionsComfort  
Time TempWeatherWind HumidityBarometerVisibility
9:20 AM
Jul 24
73 °FSunny.8 mph57%30.15 "Hg10 mi
8:50 AM72 °FSunny.7 mph65%30.15 "Hg10 mi
8:20 AM70 °FPassing clouds.8 mph64%30.15 "HgN/A
7:50 AM68 °FPassing clouds.7 mph69%30.15 "HgN/A
7:20 AM64 °FPassing clouds.7 mph78%30.18 "HgN/A
6:50 AM63 °FPassing clouds.5 mph83%30.18 "HgN/A
6:20 AM61 °FSunny.No wind88%30.18 "Hg10 mi
5:50 AM61 °FPassing clouds.5 mph88%30.18 "HgN/A
5:20 AM57 °FPassing clouds.6 mph88%30.18 "HgN/A
4:50 AM57 °FPassing clouds.3 mph88%30.18 "HgN/A
4:20 AM57 °FClear.1 mph88%30.18 "Hg10 mi
3:50 AM59 °FClear.1 mph82%30.18 "Hg10 mi
3:20 AM59 °FClear.1 mph88%30.18 "Hg10 mi
2:50 AM61 °FClear.No wind77%30.18 "Hg10 mi
2:20 AM63 °FClear.No wind77%30.21 "Hg10 mi
1:50 AM64 °FClear.No wind73%30.21 "Hg10 mi
1:20 AM64 °FClear.3 mph73%30.21 "Hg10 mi
12:20 AM64 °FClear.5 mph68%30.21 "Hg10 mi
11:50 PM
Jul 23
64 °FClear.3 mph68%30.21 "Hg10 mi
11:20 PM64 °FClear.3 mph68%30.21 "Hg10 mi
10:50 PM66 °FClear.3 mph64%30.21 "Hg10 mi
10:20 PM66 °FSunny.No wind64%30.21 "Hg10 mi
9:50 PM68 °FSunny.2 mph56%30.21 "Hg10 mi
9:20 PM70 °FSunny.3 mph53%30.21 "Hg10 mi
8:50 PM72 °FSunny.7 mph47%30.18 "Hg10 mi
8:20 PM75 °FSunny.6 mph39%30.21 "Hg10 mi
7:50 PM77 °FPassing clouds.10 mph36%30.18 "HgN/A
7:20 PM77 °FPassing clouds.10 mph34%30.18 "HgN/A
6:50 PM79 °FSunny.14 mph32%30.21 "Hg10 mi
6:20 PM79 °FSunny.15 mph34%30.21 "Hg10 mi
5:50 PM81 °FPassing clouds.14 mph34%30.21 "HgN/A
5:20 PM81 °FPassing clouds.12 mph32%30.21 "HgN/A
4:50 PM81 °FPassing clouds.14 mph30%30.21 "HgN/A
4:20 PM81 °FPassing clouds.9 mph30%30.21 "HgN/A
3:50 PM81 °FPassing clouds.9 mph30%30.24 "HgN/A
3:20 PM81 °FPassing clouds.12 mph32%30.24 "HgN/A
1:50 PM81 °FPassing clouds.13 mph34%30.24 "HgN/A
1:20 PM79 °FPassing clouds.12 mph39%30.24 "HgN/A
12:20 PM79 °FPassing clouds.12 mph42%30.27 "HgN/A
Weather by CustomWeather, © 2014

See weather overviewHow to use our weather pages